Regional Weather Roundup
Issued by NWS San Angelo, TX

Home | Current Version | Previous Version | Text Only | Print | Product List | Glossary On
Versions: 1 2 3 4 5 6 7 8 9 10 11 12 13 14 15 16 17 18 19 20 21 22 23 24 25 26 27 28 29 30 31 32 33 34 35 36 37 38 39 40 41 42 43 44 45 46 47 48 49 50
000
ASUS44 KSJT 291510
RWRSJT
WEST CENTRAL TEXAS REGIONAL WEATHER ROUNDUP
NATIONAL WEATHER SERVICE SAN ANGELO TX
1000 AM CDT FRI MAY 29 2015

NOTE: "FAIR" INDICATES FEW OR NO CLOUDS BELOW 12,000 FEET WITH NO
SIGNIFICANT WEATHER AND/OR OBSTRUCTIONS TO VISIBILITY.

TXZ049-054-064>066-071>073-076>078-098-099-113-114-127-128-139-140-
154-155-168>170-291600
...LOCATIONS ACROSS WEST CENTRAL TEXAS...

CITY           SKY/WX    TMP DP  RH WIND       PRES   REMARKS
SAN ANGELO     MOSUNNY   71  62  73 CALM      30.00S
ABILENE        CLOUDY    66  60  81 S5        29.99R
DYESS AFB      CLOUDY    67  58  72 S5        29.97F
JUNCTION       SUNNY     71  60  68 S8        30.01R
SWEETWATER     PTSUNNY   65  62  89 S3        30.04F
BROWNWOOD      CLOUDY    68  63  83 N7        29.99R
COLEMAN        CLOUDY    67  63  88 CALM      30.01R
SONORA         SUNNY     70  63  78 S9        30.05R
OZONA          NOT AVBL
BRADY          SUNNY     70  63  78 CALM      30.00R
$$

TEXAS PANHANDLE/OKLAHOMA PANHANDLE

CITY           SKY/WX    TMP DP  RH WIND       PRES   REMARKS
AMARILLO       PTSUNNY   59  55  87 N12       30.08R
BORGER         MOSUNNY   67  56  67 N12       30.05R
CANADIAN       PTSUNNY   66  59  78 N6        30.01S
DALHART        SUNNY     66  51  58 N15       30.11R
DUMAS          SUNNY     67  53  62 N10       30.07S
GUYMON         NOT AVBL
HEREFORD       SUNNY     69  58  68 MISG      30.08S
PAMPA          MOSUNNY   62  55  79 N12G17    30.05S
PERRYTON       MOSUNNY   63  58  84 N7        30.04S
$$

SOUTHERN PANHANDLE/SOUTH PLAINS/ROLLING PLAINS

CITY           SKY/WX    TMP DP  RH WIND       PRES   REMARKS
LUBBOCK        CLOUDY    61  58  90 N5        30.04R FOG
SNYDER         PTSUNNY   67  60  78 S5        30.02R
CHILDRESS      PTSUNNY   64  60  87 CALM      29.99S
SEMINOLE       SUNNY     67  58  73 E7        30.06R
$$

PERMIAN BASIN

CITY           SKY/WX    TMP DP  RH WIND       PRES   REMARKS
MIDLAND        SUNNY     69  59  70 E9        30.01S
ODESSA         SUNNY     69  58  67 E12       30.02R
WINK           SUNNY     71  58  63 E9        29.99R
$$

FAR WEST/SOUTHWEST MOUNTAINS/TRANS PECOS

CITY           SKY/WX    TMP DP  RH WIND       PRES   REMARKS
ALPINE         SUNNY     79  55  43 SW14      30.12S
DRYDEN           N/A     68  63  84 W7        29.98R
EL PASO        SUNNY     77  22  13 CALM      30.05R
FORT STOCKTON  SUNNY     68  60  75 NW3       30.00R
GUADALUPE PASS SUNNY     71  34  25 CALM      30.13R
MARFA          SUNNY     72  57  60 S7        30.13R
PECOS          SUNNY     67  57  71 N6        30.00S
$$

DALLAS/FORT WORTH METROPLEX

CITY           SKY/WX    TMP DP  RH WIND       PRES   REMARKS
DFW AIRPORT    CLOUDY    69  66  90 W8        29.93R
FTW MEACHAM    LGT RAIN  68  66  93 W14       29.95R
DAL-EXECUTIVE  CLOUDY    70  67  90 W8        29.94R
GRAND PRAIRIE  CLOUDY    70  70 100 W6        29.96R
ADDISON        CLOUDY    72  68  88 CALM      29.93R
MESQUITE       CLOUDY    72  68  88 S6        29.93R
LANCASTER      CLOUDY    69  66  89 W7        29.95R
$$

NORTH CENTRAL TEXAS

CITY           SKY/WX    TMP DP  RH WIND       PRES   REMARKS
SHRMAN/DENISON CLOUDY    70  70  99 NE5       29.94F
GAINESVILLE    CLOUDY    68  67  96 NW7       29.96S
BRIDGEPORT     CLOUDY    66  66 100 NW5       29.98R
DENTON         CLOUDY    70  68  93 N5        29.94R
WAXAHACHIE     CLOUDY    69  68  99 W9G16     29.96R
GRANBURY       CLOUDY    69  65  86 NW9       29.97S
$$

WESTERN NORTH TEXAS

CITY           SKY/WX    TMP DP  RH WIND       PRES   REMARKS
WICHITA FALLS  CLOUDY    68  62  81 SW6       29.97R
VERNON         CLOUDY    69  60  71 SW7       29.98S
BRECKENRIDGE   CLOUDY    68  63  84 SW3       29.97F
COMANCHE       CLOUDY    66  66 100 NW6       29.98S
$$

CENTRAL AND SOUTH CENTRAL TEXAS

CITY           SKY/WX    TMP DP  RH WIND       PRES   REMARKS
AUSTIN/BERGSTM MOSUNNY   72  66  81 NW8       29.99R
WACO           MOSUNNY   71  66  84 SW8       29.96R
HILLSBORO      CLOUDY    68  65  92 W8        29.96S
TEMPLE         MOSUNNY   72  63  73 W7        29.97R
KILLEEN-GRAY   SUNNY     72  64  74 VRB3      29.98R
FORT HOOD        N/A     70  64  81 VRB3      29.98R
GEORGETOWN     MOSUNNY   72  66  83 CALM      29.97R
LAGO VISTA     FAIR      70  65  82 W6        30.01R
SAN MARCOS     SUNNY     73  64  73 NW7       29.98R
NEW BRAUNFELS  SUNNY     76  65  68 NW8       29.97R
RANDOLPH AFB   SUNNY     74  63  68 W10       29.98R
SAN ANTONIO    MOSUNNY   75  63  66 W10       29.98R
STINSON        SUNNY     74  64  71 W9        29.97R
PLEASANTON     NOT AVBL
LA GRANGE      PTSUNNY   73  67  82 CALM      29.94R
GIDDINGS       PTSUNNY   70  65  86 CALM      30.01R
$$

EAST TEXAS

CITY           SKY/WX    TMP DP  RH WIND       PRES   REMARKS
PARIS          CLOUDY    73  66  78 SE9       29.92R
CLARKSVILLE    NOT AVBL
TYLER          CLOUDY    78  71  79 S15       29.93R
LONGVIEW       CLOUDY    77  72  84 SE16G25   29.90F
PALESTINE      CLOUDY    72  69  90 SW9       29.98R
NACOGDOCHES    CLOUDY    77  72  83 SE15G24   29.91F
$$

TEXAS HILL COUNTRY AND EDWARDS PLATEAU

CITY           SKY/WX    TMP DP  RH WIND       PRES   REMARKS
LLANO          MOSUNNY   70  64  83 CALM      30.03S
HORSESHOE BAY  CLOUDY    71  65  81 W3        30.01R
KERRVILLE      SUNNY     72  65  78 CALM      30.01F
FREDERICKSBRG  SUNNY     71  60  68 SW6       30.01R
ROCKSPRINGS    MOSUNNY  N/A N/A N/A CALM      30.05R
HONDO          SUNNY     71  64  78 W8        30.02R
UVALDE         PTSUNNY   68  64  86 W5        30.03R
DEL RIO        CLOUDY    71  64  78 SE9       29.97F
$$

SOUTHEAST TEXAS

CITY           SKY/WX    TMP DP  RH WIND       PRES   REMARKS
COLLEGE STN    CLOUDY    69  66  90 SW3       29.97R
CALDWELL       CLOUDY    70  70 100 NW6       30.00R
CROCKETT       NOT AVBL
BRENHAM        CLOUDY    71  68  90 W6        29.96R
HUNTSVILLE     LGT RAIN  72  69  90 S9        29.95R
CONROE         CLOUDY    72  68  87 W10G28    30.00R
HOUSTON BUSH   CLOUDY    74  70  87 SE13      29.94F
HOUSTON HOBBY  CLOUDY    73  69  87 SE8       29.96F
PERLAND        CLOUDY    73  69  87 SE8       29.98F
WHARTON        LGT RAIN  70  68  92 SE16      29.93F
$$

THE UPPER TEXAS COAST

CITY           SKY/WX    TMP DP  RH WIND       PRES   REMARKS
ORANGE         TSTM      75  70  84 SW3G20    30.05R
PORT ARTHUR    CLOUDY    80  75  84 SE8       30.01S
GALVESTON      CLOUDY    76  72  87 SE9       30.01S
ANGLETON       CLOUDY    71  67  87 SE5       29.98S
BAY CITY       LGT RAIN  72  71  96 S5        29.99R
$$

TEXAS COASTAL BEND, RIO GRANDE PLAINS DEEP SOUTH TEXAS

CITY           SKY/WX    TMP DP  RH WIND       PRES   REMARKS
VICTORIA       CLOUDY    73  67  81 W25G44    29.95R
BEEVILLE       FAIR      77  69  76 S13       29.92R
ROCKPORT       CLOUDY    73  68  84 SE9       29.91F
PORT ARANSAS   CLOUDY    75  68  77 SE9G23    29.92F
PORT LAVACA    CLOUDY    71  66  86 SE10      29.92F
CORPUS CHRISTI PTSUNNY   74  67  78 E8        29.93F
KINGSVILLE NAS PTSUNNY   76  70  82 W9        29.95R
COTULLA        SUNNY     73  65  75 VRB5      29.99R
LAREDO         SUNNY     75  67  76 S9        30.01S
BROWNSVILLE    TSTM      72  70  93 N18G32    30.02R VSB 1/4
PORT ISABEL    RAIN      72  71  97 NE23G35   30.04R FOG
HEBBRONVILLE     N/A     73  65  76 E7        30.01S
MCALLEN        PTSUNNY   74  66  76 E15G24    30.01S
WESLACO        LGT RAIN  69  65  88 E13G23    30.01F
FALFURRIAS     PTSUNNY   70  67  90 W7        29.97F
EDINBURG       PTSUNNY   71  66  84 E21G29    29.98F
$$


USA.gov is the U.S. government's official web portal to all federal, state and local government web resources and services.